Hourly Data Report for September 06, 2018

TORONTO CITY
ONTARIO
Current Station Operator: ECCC - MSC

43°40'00.000" N
79°24'00.000" W
112.50 m
6158355
71508
XTO

Download Data

Hourly Data (September 2018)
Hourly Data Report for September 6, 2018
TIME
LST
Temp Definition
°C
Dew Point Definition
°C
Rel Hum Definition
%
Precip. Amount Definition
mm

Wind Dir Definition
10's deg

Wind Spd Definition
km/h
Visibility Definition
km
Stn Press Definition
kPa
Hmdx Definition


Wind Chill Definition


Weather Definition


00:00 25.8 18.7 65 0.0 LegendMM LegendMM   100.54 32   LegendNANA
01:00 23.4 19.8 80 0.6 LegendMM LegendMM   100.53 31   LegendNANA
02:00 23.0 19.9 83 0.2 LegendMM LegendMM   100.55 30   LegendNANA
03:00 22.5 18.5 78 0.0 LegendMM LegendMM   100.64 29   LegendNANA
04:00 22.4 18.0 77 0.0 LegendMM LegendMM   100.65 28   LegendNANA
05:00 22.0 17.2 74 0.0 LegendMM LegendMM   100.71 27   LegendNANA
06:00 21.6 16.7 73 0.0 LegendMM LegendMM   100.78 27   LegendNANA
07:00 21.1 16.9 77 0.3 LegendMM LegendMM   100.87 26   LegendNANA
08:00 21.4 17.7 79 0.3 LegendMM LegendMM   100.87 27   LegendNANA
09:00 22.4 17.3 73 0.0 LegendMM LegendMM   100.93 28   LegendNANA
10:00 23.8 16.7 64 0.0 LegendMM LegendMM   100.99 29   LegendNANA
11:00 24.0 16.0 61 0.0 LegendMM LegendMM   101.01 29   LegendNANA
12:00 24.5 15.6 58 0.0 LegendMM LegendMM   101.03 29   LegendNANA
13:00 25.1 14.6 52 0.0 LegendMM LegendMM   100.97 29   LegendNANA
14:00 25.3 14.5 51 0.0 LegendMM LegendMM   100.92 29   LegendNANA
15:00 26.0 14.3 48 0.0 LegendMM LegendMM   100.87 30   LegendNANA
16:00 24.8 16.4 60 0.0 LegendMM LegendMM   100.91 30   LegendNANA
17:00 24.6 16.0 59 0.0 LegendMM LegendMM   100.90 29   LegendNANA
18:00 24.2 15.4 58 0.0 LegendMM LegendMM   100.93 28   LegendNANA
19:00 22.8 14.3 59 0.0 LegendMM LegendMM   100.96 26   LegendNANA
20:00 21.5 12.4 56 0.0 LegendMM LegendMM   101.02     LegendNANA
21:00 19.9 12.1 61 0.0 LegendMM LegendMM   101.06     LegendNANA
22:00 20.0 12.2 61 0.0 LegendMM LegendMM   101.06     LegendNANA
23:00 19.5 12.5 64 0.0 LegendMM LegendMM   101.07     LegendNANA

Notes on Data Quality.

Legend

  • E = Estimated
  • M = Missing
  • NA = Not Available*
  • [empty] = Indicates an unobserved value
Date modified: